Location: Ca�n Batista
(41.4099°N, 1.7752°E)
Time: 14:46:55
(UTC+00:00)

ATLAS CENTAUR R/B - Pass Details

Date: 03 March 2021
Orbit: 475 x 670 km, 64.7° (Epoch: 30 March)

Event Time Altitude Azimuth Distance (km) Brightness Sun altitude
Rises 19:55:58 0° 248° (WSW) 2,521 5.5 -25.0°
Reaches altitude 10° 19:58:33 10° 267° (W) 1,641 4.7 -25.5°
Maximum altitude 20:01:13 19° 315° (NW) 1,192 3.6 -25.9°
Enters shadow 20:03:16 13° 354° (N) 1,480 3.7 -26.3°
